AB6OR Weather Reports


time (UTC)temp
C
wind
direction
speed
KPH
gust
KPH
rain 1hr
cm
rain 24hr
cm
rain mn
cm
humidity
%
barometer
mb
20260507073635 16 0.0 0.0 0.00 0.00 0.00 86 1014.8
20260507072808 16 0.0 0.0 0.00 0.00 0.00 85 1014.7
20260507071805 16 0.0 0.0 0.00 0.00 0.00 84 1014.9
20260507070447 16 0.0 0.0 0.00 0.00 0.00 84 1014.8
20260507065506 16 0.0 0.0 0.00 0.00 0.00 83 1015.0
20260507064524 17 0.0 0.0 0.00 0.00 0.00 82 1015.0
20260507063636 17 0.0 0.0 0.00 0.00 0.00 82 1015.1
20260507062327 17 0.0 0.0 0.00 0.00 0.00 81 1015.2
20260507061325 17 0.0 0.0 0.00 0.00 0.00 79 1015.0
20260507060438 17 0.0 0.0 0.00 0.00 0.00 78 1015.1
20260507055406 17 0.0 0.0 0.00 0.00 0.00 78 1015.1
20260507054439 17 0.0 0.0 0.00 0.00 0.00 78 1015.1
20260507053405 17 0.0 0.0 0.00 0.00 0.00 78 1015.0
20260507052504 17 0.0 0.0 0.00 0.00 0.00 77 1015.1
20260507051605 18 0.0 0.0 0.00 0.00 0.00 77 1015.0
20260507050124 18 0.0 0.0 0.00 0.00 0.00 77 1014.8
20260507045009 18 0.0 0.0 0.00 0.00 0.00 77 1014.9
20260507044106 18 0.0 0.0 0.00 0.00 0.00 77 1014.9
20260507043048 18 0.0 0.0 0.00 0.00 0.00 77 1014.8
20260507042106 18 0.0 0.0 0.00 0.00 0.00 77 1014.8
20260507041206 18 0.0 0.0 0.00 0.00 0.00 76 1014.7
20260507040206 18 0.0 0.0 0.00 0.00 0.00 75 1014.6
20260507035306 18 0.0 0.0 0.00 0.00 0.00 74 1014.4
20260507034406 19 0.0 3.2 0.00 0.00 0.00 73 1014.4
20260507032926 19 0.0 0.0 0.00 0.00 0.00 73 1014.3
20260507032038 19 0.0 3.2 0.00 0.00 0.00 73 1014.2
20260507031149 20 0.0 0.0 0.00 0.00 0.00 71 1014.0
20260507030226 20 0.0 0.0 0.00 0.00 0.00 71 1014.0
20260507024839 20 0.0 0.0 0.00 0.00 0.00 69 1014.0
20260507024031 20 0.0 0.0 0.00 0.00 0.00 67 1013.9
20260507023007 20 0.0 0.0 0.00 0.00 0.00 66 1013.6
20260507022106 21 0.0 1.6 0.00 0.00 0.00 63 1013.7
20260507021104 21 0.0 3.2 0.00 0.00 0.00 60 1013.5
20260507015707 22 0.0 0.0 0.00 0.00 0.00 58 1013.4
20260507014806 22 0.0 1.6 0.00 0.00 0.00 56 1013.6
20260507013905 23 0.0 3.2 0.00 0.00 0.00 56 1013.5
20260507012924 23 0.0 0.0 0.00 0.00 0.00 56 1013.4
20260507011606 23 0.0 3.2 0.00 0.00 0.00 54 1013.3
20260507010706 24 0.0 3.2 0.00 0.00 0.00 54 1013.2
20260507005726 24 0.0 0.0 0.00 0.00 0.00 54 1013.1
20260507004837 24 135 1.6 6.4 0.00 0.00 0.00 53 1013.1
20260507003948 25 0.0 4.8 0.00 0.00 0.00 52 1013.0
20260507002527 24 0.0 4.8 0.00 0.00 0.00 52 1013.0
20260507001640 24 0.0 3.2 0.00 0.00 0.00 52 1012.9
20260507000605 25 0.0 0.0 0.00 0.00 0.00 52 1013.1
20260506235706 25 0.0 0.0 0.00 0.00 0.00 50 1013.0
20260506234804 25 0.0 3.2 0.00 0.00 0.00 49 1013.1
20260506233905 25 0.0 4.8 0.00 0.00 0.00 48 1013.1
20260506232438 25 0.0 3.2 0.00 0.00 0.00 47 1013.0
20260506231550 25 0.0 6.4 0.00 0.00 0.00 46 1013.1
20260506230604 25 0.0 3.2 0.00 0.00 0.00 44 1013.2
20260506225243 25 0.0 3.2 0.00 0.00 0.00 44 1013.2
20260506224350 25 0.0 6.4 0.00 0.00 0.00 44 1013.2
20260506223406 25 0.0 3.2 0.00 0.00 0.00 44 1013.4
20260506222505 25 0.0 1.6 0.00 0.00 0.00 44 1013.6
20260506221233 25 0.0 6.4 0.00 0.00 0.00 45 1013.7
20260506220207 25 0.0 3.2 0.00 0.00 0.00 45 1013.7
20260506215306 25 225 1.6 6.4 0.00 0.00 0.00 45 1013.9
20260506214206 25 0.0 3.2 0.00 0.00 0.00 48 1013.9
20260506213305 25 0.0 3.2 0.00 0.00 0.00 49 1013.9
20260506212346 25 0.0 4.8 0.00 0.00 0.00 50 1014.2
20260506211325 25 0.0 3.2 0.00 0.00 0.00 51 1014.3
20260506210007 25 0.0 3.2 0.00 0.00 0.00 50 1014.5
20260506205108 25 270 3.2 12.9 0.00 0.00 0.00 50 1014.6
20260506204125 25 315 3.2 9.7 0.00 0.00 0.00 51 1014.3
20260506203236 24 0.0 3.2 0.00 0.00 0.00 52 1014.4
20260506202349 25 180 1.6 6.4 0.00 0.00 0.00 53 1014.7
20260506200926 24 0.0 0.0 0.00 0.00 0.00 52 1014.8
20260506200037 24 0.0 4.8 0.00 0.00 0.00 53 1015.0
20260506195150 24 0.0 0.0 0.00 0.00 0.00 52 1015.1
20260506193727 25 0.0 1.6 0.00 0.00 0.00 52 1015.2
20260506192858 24 0.0 6.4 0.00 0.00 0.00 53 1015.1
20260506191951 24 0.0 6.4 0.00 0.00 0.00 51 1015.3
20260506191028 23 0.0 1.6 0.00 0.00 0.00 53 1015.3
20260506185638 24 270 3.2 6.4 0.00 0.00 0.00 50 1015.7
20260506184757 23 45 1.6 6.4 0.00 0.00 0.00 54 1015.7
20260506183805 23 270 1.6 4.8 0.00 0.00 0.00 53 1016.1
20260506182906 22 0.0 0.0 0.00 0.00 0.00 54 1015.8
20260506182004 22 0.0 0.0 0.00 0.00 0.00 53 1016.0
20260506180632 22 0.0 3.2 0.00 0.00 0.00 53 1016.0
20260506175556 22 0.0 0.0 0.00 0.00 0.00 53 1016.2
20260506174647 22 0.0 3.2 0.00 0.00 0.00 57 1016.1
20260506173705 21 0.0 0.0 0.00 0.00 0.00 54 1016.3
20260506172806 21 270 1.6 3.2 0.00 0.00 0.00 55 1016.2
20260506171415 21 0.0 0.0 0.00 0.00 0.00 57 1016.2
20260506170438 20 0.0 3.2 0.00 0.00 0.00 60 1016.1
20260506165550 20 0.0 0.0 0.00 0.00 0.00 63 1016.2
20260506164607 20 0.0 0.0 0.00 0.00 0.00 63 1016.2
20260506163701 20 0.0 0.0 0.00 0.00 0.00 66 1016.2
20260506162704 20 0.0 1.6 0.00 0.00 0.00 66 1016.3
20260506161704 19 0.0 0.0 0.00 0.00 0.00 67 1016.2
20260506160306 19 0.0 1.6 0.00 0.00 0.00 69 1016.3
20260506155330 19 0.0 0.0 0.00 0.00 0.00 69 1016.2
20260506154459 18 0.0 0.0 0.00 0.00 0.00 70 1016.3
20260506153549 18 0.0 0.0 0.00 0.00 0.00 72 1016.4
20260506152605 17 0.0 0.0 0.00 0.00 0.00 72 1016.3
20260506151207 17 0.0 0.0 0.00 0.00 0.00 75 1016.3
20260506150308 16 0.0 0.0 0.00 0.00 0.00 77 1016.3
20260506145306 15 0.0 0.0 0.00 0.00 0.00 77 1016.3
20260506144405 14 0.0 0.0 0.00 0.00 0.00 79 1016.3
20260506143504 13 0.0 0.0 0.00 0.00 0.00 81 1016.3
20260506142106 13 0.0 0.0 0.00 0.00 0.00 82 1016.2
20260506141207 12 0.0 0.0 0.00 0.00 0.00 82 1016.2
20260506140305 12 0.0 0.0 0.00 0.00 0.00 83 1016.2
20260506135326 12 0.0 0.0 0.00 0.00 0.00 83 1016.2
20260506134439 11 0.0 0.0 0.00 0.00 0.00 83 1016.1
20260506133028 11 0.0 0.0 0.00 0.00 0.00 83 1015.8
20260506132106 11 0.0 0.0 0.00 0.00 0.00 83 1015.7
20260506131205 11 0.0 0.0 0.00 0.00 0.00 83 1015.4
20260506130325 11 0.0 0.0 0.00 0.00 0.00 84 1015.4
20260506124929 11 0.0 0.0 0.00 0.00 0.00 84 1015.5
20260506124005 11 0.0 0.0 0.00 0.00 0.00 84 1015.3
20260506123107 11 0.0 0.0 0.00 0.00 0.00 84 1015.4
20260506122126 12 0.0 0.0 0.00 0.00 0.00 83 1015.3
20260506120828 12 0.0 0.0 0.00 0.00 0.00 84 1015.2
20260506115904 12 0.0 0.0 0.00 0.00 0.00 84 1015.1
20260506114926 12 0.0 0.0 0.00 0.00 0.00 85 1015.1
20260506114037 12 0.0 0.0 0.00 0.00 0.00 85 1015.2
20260506113150 12 0.0 1.6 0.00 0.00 0.00 85 1015.2
20260506111727 12 0.0 0.0 0.00 0.00 0.00 86 1015.0
20260506110838 12 0.0 0.0 0.00 0.00 0.00 86 1015.2
20260506105952 12 0.0 0.0 0.00 0.00 0.00 87 1015.1
20260506105004 12 0.0 0.0 0.00 0.00 0.00 87 1015.2
20260506104124 12 0.0 0.0 0.00 0.00 0.00 87 1015.1
20260506102708 12 0.0 0.0 0.00 0.00 0.00 88 1015.2
20260506101727 12 0.0 0.0 0.00 0.00 0.00 88 1015.0
20260506100807 13 0.0 0.0 0.00 0.00 0.00 88 1015.0
20260506095806 13 0.0 0.0 0.00 0.00 0.00 88 1015.1
20260506094905 13 0.0 0.0 0.00 0.00 0.00 88 1015.2
20260506093553 13 0.0 0.0 0.00 0.00 0.00 89 1015.2
20260506092606 13 0.0 0.0 0.00 0.00 0.00 89 1015.2
20260506091705 13 0.0 0.0 0.00 0.00 0.00 89 1015.2
20260506090805 13 0.0 0.0 0.00 0.00 0.00 89 1015.2
20260506085904 13 0.0 0.0 0.00 0.00 0.00 90 1015.3
20260506084513 13 0.0 0.0 0.00 0.00 0.00 90 1015.3
20260506083606 13 0.0 0.0 0.00 0.00 0.00 90 1015.5
20260506082704 13 0.0 0.0 0.00 0.00 0.00 89 1015.4
20260506081704 13 0.0 0.0 0.00 0.00 0.00 89 1015.4
20260506080411 14 0.0 0.0 0.00 0.00 0.00 88 1015.5